Regional Weather Roundup
Issued by NWS

Home | Current Version | Previous Version | Graphics & Text | Print | Product List | Glossary On
Versions: 1 2 3 4 5 6 7 8 9 10 11 12 13 14 15 16 17 18 19 20 21 22 23 24 25 26 27 28 29 30 31 32 33 34 35 36 37 38 39 40 41 42 43 44 45 46 47 48 49 50
000
ASUS43 KLMK 030110
RWRKY
KENTUCKY REGIONAL WEATHER ROUNDUP
NATIONAL WEATHER SERVICE LOUISVILLE KY
900 PM EDT WED SEP 02 2015

NOTE "FAIR" INDICATES FEW OR NO CLOUDS BELOW 12,000 FEET
WITH NO SIGNIFICANT WEATHER AND/OR OBSTRUCTIONS TO VISIBILITY.

KYZ001>023-026-027-061>063-070>075-030200-
WESTERN AND SOUTH CENTRAL KENTUCKY

CITY           SKY/WX    TMP DP  RH WIND       PRES   REMARKS
PADUCAH        CLEAR     77  69  76 CALM      29.99R
HENDERSON      CLEAR     77  70  78 CALM      29.99R
OWENSBORO      LGT RAIN  81  69  66 CALM      30.01R
HOPKINSVILLE   CLEAR     80  69  68 N3        30.00S
BOWLING GREEN  CLEAR     81  65  58 CALM      30.01S
GLASGOW        PTCLDY    77  67  71 CALM      30.01S
$$

KYZ024-025-028>034-038-045-046-053-030200-
NORTH CENTRAL KENTUCKY

CITY           SKY/WX    TMP DP  RH WIND       PRES   REMARKS
LOUISVILLE/SDF PTCLDY    85  66  53 W5        30.01R
LOUISVILLE/LOU PTCLDY    84  68  58 CALM      30.02R
FORT KNOX      CLEAR     74  69  86 CALM      30.01S
$$

KYZ035>037-039>044-047>052-055>060-089>105-030200-
NORTHEAST KENTUCKY

CITY           SKY/WX    TMP DP  RH WIND       PRES   REMARKS
LEXINGTON      CLEAR     79  66  64 CALM      30.04S
COVINGTON      PTCLDY    80  69  69 CALM      30.03R
FRANKFORT      CLEAR     76  67  73 CALM      30.02S
$$

KYZ054-064>069-076>088-106>120-030200-
SOUTHEAST KENTUCKY

CITY           SKY/WX    TMP DP  RH WIND       PRES   REMARKS
JACKSON        PTCLDY    77  66  68 CALM      30.06S
LONDON         PTCLDY    79  63  57 CALM      30.06R
SOMERSET       CLEAR     73  68  83 CALM      30.05S
MIDDLESBORO    PTCLDY    74  68  81 NW3       30.07R
MONTICELLO     PTCLDY    72  69  90 CALM      30.07R
$$




USA.gov is the U.S. government's official web portal to all federal, state and local government web resources and services.